Weather History for Pagosa Springs, CO

Change the Weather History Date:

Wednesday, October 23, 2013

  Actual Average (KDRO) Record (KDRO)
Temperature  
Mean Temperature 46 °F 44 °F  
Max Temperature 63 °F 60 °F 77 °F (2003)
Min Temperature 28 °F 29 °F 15 °F (2008)
Degree Days  
Heating Degree Days 20 21  
Month to date heating degree days 382  
Since 1 July heating degree days 606  
Cooling Degree Days 0 0  
Month to date cooling degree days 0  
Year to date cooling degree days 243  
Moisture  
Dew Point 18 °F    
Average Humidity 43    
Maximum Humidity 72    
Minimum Humidity 12    
Precipitation  
Precipitation 0.00 in 0.03 in 0.83 in (2000)
Month to date precipitation 1.04  
Year to date precipitation 12.92  
Sea Level Pressure  
Sea Level Pressure 30.30 in    
Wind  
Wind Speed 1 mph (SW)    
Max Wind Speed 10 mph    
Max Gust Speed 9 mph    
Visibility 10 miles    
Events Thunderstorm    
T = Trace of Precipitation, MM = Missing Value Source: NWS Daily Summary

Daily Weather History Graph

Daily Weather History Graph

Search for Another Location

Airport:

Trip Planner

Search our weather history database for the weather conditions in past years. The results will help you decide how hot, cold, wet, or windy it might be!

Date:

Astronomy

Oct. 23, 2013 Rise Set
Actual Time 7:24 AM MDT 6:20 PM MDT
Civil Twilight 6:57 AM MDT 6:46 PM MDT
Nautical Twilight 6:27 AM MDT 7:17 PM MDT
Astronomical Twilight 5:56 AM MDT 7:47 PM MDT
Moon 9:57 PM MDT (10/23) 11:40 AM MDT (10/23)
Length of Visible Light 11h 49m
Length of Day
10h 56m
Waning Gibbous, 79% of the Moon is Illuminated
Oct 23
Waning Gibbous
Oct 26
Last Quarter
Nov 3
New
Nov 9
First Quarter
Nov 17
Full

Hourly Weather History & Observations

Time (MDT) Temp. Dew Point Humidity Pressure Visibility Wind Dir Wind Speed Gust Speed Precip Events Conditions
12:15 AM 33.4 °F 20.5 °F 59% 30.32 in 10.0 mi Calm Calm - N/A   Clear
12:35 AM 32.2 °F 20.7 °F 63% 30.32 in 10.0 mi Calm Calm - N/A   Clear
12:55 AM 31.5 °F 20.1 °F 63% 30.32 in 10.0 mi Calm Calm - N/A   Clear
1:15 AM 32.2 °F 20.3 °F 62% 30.32 in 10.0 mi Calm Calm - N/A   Clear
1:35 AM 32.0 °F 21.9 °F 66% 30.32 in 10.0 mi Calm Calm - N/A   Clear
1:55 AM 30.7 °F 20.8 °F 67% 30.32 in 10.0 mi Calm Calm - N/A   Clear
2:15 AM 29.5 °F 20.8 °F 70% 30.32 in 10.0 mi Calm Calm - N/A   Clear
2:35 AM 31.3 °F 20.3 °F 64% 30.32 in 10.0 mi Calm Calm - N/A   Clear
2:55 AM 30.0 °F 20.7 °F 68% 30.31 in 10.0 mi Calm Calm - N/A   Clear
3:15 AM 29.8 °F 19.9 °F 67% 30.31 in 10.0 mi Calm Calm - N/A   Clear
3:35 AM 28.6 °F 20.5 °F 72% 30.31 in 10.0 mi Calm Calm - N/A   Clear
3:55 AM 31.3 °F 20.5 °F 64% 30.31 in 10.0 mi Calm Calm - N/A   Clear
4:15 AM 31.5 °F 20.7 °F 64% 30.31 in 10.0 mi Calm Calm - N/A   Clear
4:35 AM 29.1 °F 20.1 °F 69% 30.31 in 10.0 mi Calm Calm - N/A   Clear
4:55 AM 29.1 °F 19.9 °F 69% 30.31 in 10.0 mi Calm Calm - N/A   Clear
5:15 AM 29.3 °F 20.1 °F 69% 30.31 in 10.0 mi Calm Calm - N/A   Clear
5:35 AM 29.3 °F 20.1 °F 69% 30.31 in 10.0 mi Calm Calm - N/A   Clear
5:55 AM 30.0 °F 20.5 °F 68% 30.31 in 10.0 mi Calm Calm - N/A   Clear
6:15 AM 28.8 °F 19.8 °F 69% 30.31 in 10.0 mi Calm Calm - N/A   Clear
6:35 AM 28.0 °F 19.9 °F 72% 30.32 in 10.0 mi Calm Calm - N/A   Clear
6:55 AM 28.4 °F 20.1 °F 71% 30.32 in 10.0 mi Calm Calm - N/A Thunderstorm Thunderstorm
7:15 AM 29.1 °F 20.1 °F 69% 30.32 in 10.0 mi Calm Calm - N/A   Clear
7:35 AM 29.1 °F 20.3 °F 70% 30.32 in 10.0 mi Calm Calm - N/A   Clear
7:55 AM 28.2 °F 20.1 °F 72% 30.33 in 10.0 mi Calm Calm - N/A   Clear
8:15 AM 30.0 °F 21.7 °F 71% 30.34 in 10.0 mi Calm Calm - N/A   Clear
8:35 AM 36.3 °F 21.7 °F 56% 30.34 in 10.0 mi Calm Calm - N/A   Clear
8:55 AM 38.8 °F 22.5 °F 52% 30.34 in 10.0 mi Calm Calm - N/A   Clear
9:15 AM 41.2 °F 20.5 °F 44% 30.34 in 10.0 mi Calm Calm - N/A   Clear
9:35 AM 43.3 °F 21.4 °F 42% 30.34 in 10.0 mi Calm Calm - N/A   Clear
9:55 AM 45.5 °F 18.5 °F 34% 30.34 in 10.0 mi Calm Calm - N/A   Clear
10:15 AM 47.1 °F 19.4 °F 33% 30.34 in 10.0 mi Calm Calm - N/A   Clear
10:35 AM 49.6 °F 21.4 °F 33% 30.34 in 10.0 mi Calm Calm - N/A   Clear
10:55 AM 52.3 °F 20.1 °F 28% 30.34 in 10.0 mi Calm Calm - N/A   Clear
11:15 AM 52.9 °F 18.3 °F 26% 30.33 in 10.0 mi Calm Calm - N/A   Clear
11:35 AM 54.1 °F 18.5 °F 25% 30.33 in 10.0 mi Calm Calm - N/A   Clear
11:55 AM 55.4 °F 14.0 °F 20% 30.32 in 10.0 mi Calm Calm - N/A   Clear
12:15 PM 56.7 °F 15.3 °F 20% 30.32 in 10.0 mi Calm Calm - N/A   Clear
12:35 PM 57.4 °F 14.7 °F 19% 30.31 in 10.0 mi SSW 3.5 mph - N/A   Clear
12:55 PM 58.1 °F 14.5 °F 18% 30.30 in 10.0 mi Calm Calm - N/A   Clear
1:15 PM 59.5 °F 16.0 °F 18% 30.29 in 10.0 mi South 3.5 mph - N/A   Clear
1:35 PM 59.9 °F 15.1 °F 17% 30.28 in 10.0 mi South 4.6 mph - N/A   Clear
1:55 PM 61.2 °F 14.5 °F 16% 30.27 in 10.0 mi South 5.8 mph - N/A   Clear
2:15 PM 61.0 °F 12.9 °F 15% 30.27 in 10.0 mi South 3.5 mph - N/A   Clear
2:35 PM 62.1 °F 14.2 °F 15% 30.26 in 10.0 mi SSW 10.4 mph - N/A   Clear
2:55 PM 62.6 °F 9.5 °F 12% 30.26 in 10.0 mi SSW 5.8 mph 9.2 mph N/A   Clear
3:15 PM 63.0 °F 12.4 °F 14% 30.26 in 10.0 mi Calm Calm - N/A   Clear
3:35 PM 63.1 °F 10.9 °F 13% 30.25 in 10.0 mi WSW 5.8 mph - N/A   Clear
3:55 PM 62.8 °F 10.2 °F 13% 30.25 in 10.0 mi WSW 3.5 mph - N/A   Clear
4:15 PM 63.7 °F 9.7 °F 12% 30.24 in 10.0 mi WSW 5.8 mph - N/A   Clear
4:35 PM 63.7 °F 10.8 °F 13% 30.24 in 10.0 mi SSW 6.9 mph - N/A   Clear
4:55 PM 63.1 °F 9.7 °F 12% 30.24 in 10.0 mi Calm Calm - N/A   Clear
5:15 PM 63.1 °F 11.7 °F 13% 30.24 in 10.0 mi WSW 6.9 mph - N/A   Clear
5:35 PM 62.6 °F 11.5 °F 14% 30.24 in 10.0 mi WSW 5.8 mph - N/A   Clear
5:55 PM 60.8 °F 14.9 °F 17% 30.24 in 10.0 mi WSW 4.6 mph - N/A   Clear
6:15 PM 59.4 °F 12.6 °F 16% 30.25 in 10.0 mi SW 4.6 mph - N/A   Clear
6:35 PM 54.3 °F 18.5 °F 25% 30.25 in 10.0 mi Calm Calm - N/A   Clear
6:55 PM 49.6 °F 20.8 °F 32% 30.26 in 10.0 mi Calm Calm - N/A   Clear
7:15 PM 44.4 °F 22.8 °F 43% 30.26 in 10.0 mi Calm Calm - N/A   Clear
7:35 PM 46.6 °F 19.4 °F 34% 30.27 in 10.0 mi NNE 4.6 mph - N/A   Clear
7:55 PM 45.5 °F 21.2 °F 38% 30.27 in 10.0 mi Calm Calm - N/A   Clear
8:15 PM 46.9 °F 18.1 °F 32% 30.27 in 10.0 mi NE 3.5 mph - N/A   Clear
8:35 PM 43.9 °F 20.1 °F 39% 30.28 in 10.0 mi Calm Calm - N/A   Clear
8:55 PM 42.6 °F 19.4 °F 39% 30.28 in 10.0 mi Calm Calm - N/A   Clear
9:15 PM 43.5 °F 19.4 °F 38% 30.28 in 7.0 mi Calm Calm - N/A   Clear
9:35 PM 41.5 °F 19.6 °F 41% 30.28 in 10.0 mi Calm Calm - N/A   Clear
9:55 PM 39.6 °F 20.8 °F 47% 30.29 in 10.0 mi Calm Calm - N/A   Clear
10:15 PM 38.7 °F 20.7 °F 48% 30.29 in 10.0 mi Calm Calm - N/A   Clear
10:35 PM 34.3 °F 21.9 °F 60% 30.29 in 10.0 mi Calm Calm - N/A   Clear
10:55 PM 36.0 °F 20.8 °F 54% 30.29 in 10.0 mi Calm Calm - N/A   Clear
11:15 PM 36.9 °F 20.1 °F 51% 30.29 in 10.0 mi Calm Calm - N/A   Clear
11:35 PM 35.6 °F 20.5 °F 54% 30.29 in 10.0 mi Calm Calm - N/A   Clear
11:55 PM 36.7 °F 21.0 °F 53% 30.29 in 10.0 mi Calm Calm - N/A   Clear